Bradford, PA

8:06 PM EST on December 06, 2019 (GMT -0500)
Bradford Regional

Weather History for KBFD - August, 2019

Change the Weather History Date:

Tuesday, August 6, 2019

  Actual Average Record
Temperature  
Mean Temperature 70 °F 65 °F  
Max Temperature 83 °F 77 °F 88 °F (2001)
Min Temperature 57 °F 53 °F 33 °F (1994)
Degree Days  
Heating Degree Days 0 0  
Month to date heating degree days 0 0  
Since 1 June heating degree days 134 209  
Since 1 July heating degree days 12 64  
Cooling Degree Days 5 2  
Month to date cooling degree days 17 12  
Year to date cooling degree days 207 136  
Since 1 June cooling degree days 200 126  
Growing Degree Days 20 (Base 50)    
Moisture  
Dew Point 61 °F    
Average Humidity 74    
Maximum Humidity 100    
Minimum Humidity 47    
Precipitation  
Precipitation 0.01 in 0.14 in 1.11 in (1978)
Month to date precipitation 0.56 0.82  
Year to date precipitation 28.53 26.66  
Sea Level Pressure  
Sea Level Pressure 29.86 in    
Wind  
Wind Speed 5 mph (SW)    
Max Wind Speed 18 mph    
Max Gust Speed 24 mph    
Visibility 8 miles    
Events Rain , Thunderstorm    
T = Trace of Precipitation, MM = Missing Value Source: NWS Daily Summary

Daily Weather History Graph

Daily Weather History Graph

Search for Another Location

Airport or City:

Astronomy

Aug. 06, 2019 Rise Set
Actual Time 6:13 AM EDT 8:26 PM EDT
Civil Twilight 5:42 AM EDT 8:57 PM EDT
Nautical Twilight 5:04 AM EDT 9:35 PM EDT
Astronomical Twilight 4:22 AM EDT 10:17 PM EDT
Moon 12:41 PM EDT (8/6) No Moon Set
Length of Visible Light 15h 15m
Length of Day
14h 13m
Waxing Crescent, 38% of the Moon is Illuminated
Aug 6
Waxing Crescent
Aug 7
First Quarter
Aug 15
Full
Aug 23
Last Quarter
Aug 30
New

Hourly Weather History & Observations

Time (EDT) Temp. Heat Index Dew Point Humidity Pressure Visibility Wind Dir Wind Speed Gust Speed Precip Events Conditions
12:53 AM 62.1 °F - 61.0 °F 96% 29.92 in 9.0 mi SSE 3.5 mph - N/A   Partly Cloudy
1:53 AM 62.1 °F - 61.0 °F 96% 29.91 in 8.0 mi Calm Calm - N/A   Clear
2:45 AM 61.0 °F - 60.1 °F 97% 29.95 in 1.5 mi Calm Calm - N/A   Partly Cloudy
2:53 AM 59.0 °F - 59.0 °F 100% 29.90 in 1.0 mi SE 4.6 mph - N/A   Partly Cloudy
3:07 AM 59.0 °F - 59.0 °F 100% 29.93 in 2.5 mi SE 3.5 mph - N/A   Clear
3:15 AM 60.1 °F - 60.1 °F 100% 29.94 in 4.0 mi SE 3.5 mph - N/A   Clear
3:53 AM 59.0 °F - 59.0 °F 100% 29.88 in 0.8 mi Calm Calm - N/A   Mist
4:09 AM 59.0 °F - 59.0 °F 100% 29.92 in 1.2 mi SSE 3.5 mph - N/A   Partly Cloudy
4:16 AM 60.1 °F - 59.0 °F 96% 29.92 in 3.0 mi Calm Calm - N/A   Partly Cloudy
4:53 AM 60.1 °F - 57.9 °F 93% 29.88 in 9.0 mi Calm Calm - N/A   Clear
5:53 AM 57.9 °F - 57.0 °F 97% 29.88 in 5.0 mi SSE 3.5 mph - N/A   Clear
6:53 AM 59.0 °F - 57.9 °F 96% 29.88 in 7.0 mi SE 3.5 mph - N/A   Clear
7:53 AM 66.9 °F - 63.0 °F 87% 29.87 in 10.0 mi SSW 5.8 mph - N/A   Clear
8:53 AM 70.0 °F - 63.0 °F 78% 29.88 in 10.0 mi Variable 5.8 mph - N/A   Clear
9:53 AM 75.0 °F - 64.0 °F 69% 29.87 in 10.0 mi WSW 9.2 mph - N/A   Clear
10:53 AM 79.0 °F - 64.0 °F 60% 29.86 in 10.0 mi SW 8.1 mph - N/A   Clear
11:53 AM 79.0 °F - 61.0 °F 54% 29.86 in 10.0 mi West 8.1 mph 16.1 mph N/A   Scattered Clouds
12:53 PM 82.0 °F 82.7 °F 61.0 °F 49% 29.84 in 10.0 mi WSW 8.1 mph 16.1 mph N/A   Partly Cloudy
1:53 PM 81.0 °F 81.6 °F 60.1 °F 49% 29.81 in 10.0 mi Variable 5.8 mph - N/A   Partly Cloudy
2:53 PM 82.9 °F 83.2 °F 60.1 °F 46% 29.80 in 10.0 mi West 10.4 mph - N/A   Partly Cloudy
3:53 PM 82.0 °F 82.7 °F 61.0 °F 49% 29.79 in 10.0 mi West 6.9 mph - N/A   Partly Cloudy
4:37 PM 73.0 °F - 64.0 °F 73% 29.85 in 10.0 mi NW 9.2 mph - N/A   Mostly Cloudy
4:53 PM 72.0 °F - 64.0 °F 76% 29.82 in 10.0 mi NW 9.2 mph - 0.00 in Rain Light Rain
5:49 PM 71.6 °F - 64.4 °F 78% 29.85 in 10.0 mi West 12.7 mph - 0.00 in Thunderstorm Scattered Clouds
5:53 PM 72.0 °F - 63.0 °F 73% 29.82 in 10.0 mi WNW 9.2 mph 19.6 mph 0.00 in Thunderstorm Mostly Cloudy
6:04 PM 71.1 °F - 63.0 °F 75% 29.86 in 10.0 mi West 8.1 mph 19.6 mph N/A   Mostly Cloudy
6:53 PM 69.1 °F - 63.0 °F 81% 29.86 in 10.0 mi SW 8.1 mph - 0.00 in   Overcast
7:53 PM 66.9 °F - 62.1 °F 84% 29.83 in 10.0 mi West 3.5 mph - 0.00 in   Mostly Cloudy
8:53 PM 66.0 °F - 63.0 °F 90% 29.82 in 10.0 mi Calm Calm - N/A   Mostly Cloudy
9:53 PM 64.9 °F - 63.0 °F 93% 29.82 in 10.0 mi SE 3.5 mph - 0.00 in   Mostly Cloudy
10:53 PM 63.0 °F - 63.0 °F 100% 29.81 in 9.0 mi ESE 3.5 mph - N/A   Clear
11:53 PM 64.0 °F - 63.0 °F 96% 29.81 in 10.0 mi East 3.5 mph - 0.01 in   Overcast